Weather History for Beaver Island, MI

Change the Weather History Date:

Monday, December 31, 2012

  Actual Average Record
Temperature  
Mean Temperature 27 °F -  
Max Temperature 35 °F 29 °F 55 °F (1965)
Min Temperature 19 °F 17 °F 0 °F (1962)
Degree Days  
Heating Degree Days 38    
Moisture  
Dew Point 20 °F    
Average Humidity 78    
Maximum Humidity 90    
Minimum Humidity 64    
Precipitation  
Precipitation 0.00 in - - ()
Sea Level Pressure  
Sea Level Pressure 29.91 in    
Wind  
Wind Speed 13 mph (West)    
Max Wind Speed 23 mph    
Max Gust Speed 36 mph    
Visibility 10 miles    
Events Snow    
Averages and records for this station are not official NWS values.
T = Trace of Precipitation, MM = Missing Value Source: NWS Daily Summary

Daily Weather History Graph

Daily Weather History Graph

Search for Another Location

Airport:

Trip Planner

Search our weather history database for the weather conditions in past years. The results will help you decide how hot, cold, wet, or windy it might be!

Date:

Astronomy

Dec. 31, 2012 Rise Set
Actual Time 8:23 AM EST 5:08 PM EST
Civil Twilight 7:48 AM EST 5:42 PM EST
Nautical Twilight 7:11 AM EST 6:20 PM EST
Astronomical Twilight 6:35 AM EST 6:56 PM EST
Moon 8:49 PM EST (12/31) 9:54 AM EST (12/31)
Length of Visible Light 9h 53m
Length of Day
8h 45m
Waning Gibbous, 90% of the Moon is Illuminated
Dec 31
Waning Gibbous
Jan 4
Last Quarter
Jan 11
New
Jan 18
First Quarter
Jan 26
Full

Hourly Weather History & Observations

Time (EST) Temp. Windchill Dew Point Humidity Pressure Visibility Wind Dir Wind Speed Gust Speed Precip Events Conditions
12:15 AM 32.9 °F 25.3 °F 30.0 °F 89% 29.92 in 10.0 mi SSW 9.2 mph 16.1 mph N/A   Overcast
12:35 AM 32.9 °F 25.3 °F 30.2 °F 90% 29.91 in 10.0 mi SSW 9.2 mph 19.6 mph N/A   Overcast
12:55 AM 33.8 °F 26.4 °F 30.7 °F 89% 29.90 in 10.0 mi SSW 9.2 mph 16.1 mph N/A   Overcast
1:15 AM 33.8 °F 24.3 °F 31.1 °F 90% 29.88 in 10.0 mi South 13.8 mph 19.6 mph N/A   Overcast
1:35 AM 33.8 °F 27.0 °F 31.1 °F 90% 29.87 in 10.0 mi SSW 8.1 mph - N/A   Overcast
1:55 AM 35.6 °F 27.5 °F 31.8 °F 86% 29.86 in 10.0 mi SSW 11.5 mph 23.0 mph N/A   Overcast
2:15 AM 35.8 °F 25.4 °F 31.1 °F 83% 29.84 in 10.0 mi SW 18.4 mph 27.6 mph N/A   Overcast
2:35 AM 35.6 °F 24.8 °F 29.1 °F 77% 29.83 in 10.0 mi SW 19.6 mph 26.5 mph N/A   Overcast
2:55 AM 35.6 °F 24.0 °F 28.0 °F 74% 29.84 in 10.0 mi SW 23.0 mph 35.7 mph N/A   Overcast
3:15 AM 34.5 °F 22.8 °F 27.9 °F 77% 29.84 in 10.0 mi WSW 21.9 mph 29.9 mph N/A   Overcast
3:34 AM 33.8 °F 22.2 °F 27.3 °F 77% 29.83 in 10.0 mi WSW 20.7 mph 29.9 mph N/A   Overcast
3:55 AM 32.5 °F 20.8 °F 27.0 °F 80% 29.83 in 10.0 mi WSW 19.6 mph 27.6 mph N/A   Overcast
4:15 AM 32.0 °F 21.2 °F 26.8 °F 81% 29.82 in 10.0 mi WSW 16.1 mph 26.5 mph N/A   Overcast
4:35 AM 31.6 °F 19.7 °F 26.6 °F 82% 29.81 in 10.0 mi WSW 19.6 mph 24.2 mph N/A   Overcast
4:55 AM 31.5 °F 19.4 °F 26.4 °F 82% 29.80 in 10.0 mi West 19.6 mph 26.5 mph N/A   Overcast
5:16 AM 30.7 °F 19.6 °F 25.7 °F 82% 29.80 in 10.0 mi WSW 16.1 mph - N/A   Overcast
5:35 AM 30.7 °F 18.8 °F 25.7 °F 82% 29.81 in 10.0 mi WSW 18.4 mph 24.2 mph N/A   Overcast
5:55 AM 30.7 °F 20.0 °F 25.5 °F 81% 29.81 in 10.0 mi West 15.0 mph 20.7 mph N/A   Overcast
6:15 AM 30.0 °F 20.5 °F 24.3 °F 79% 29.81 in 10.0 mi West 11.5 mph 20.7 mph N/A   Overcast
6:35 AM 29.3 °F 19.1 °F 23.2 °F 78% 29.82 in 10.0 mi West 12.7 mph 17.3 mph N/A   Overcast
6:55 AM 29.1 °F 18.4 °F 23.0 °F 78% 29.82 in 10.0 mi West 13.8 mph 18.4 mph N/A   Overcast
7:15 AM 28.4 °F 17.0 °F 22.8 °F 80% 29.83 in 10.0 mi West 15.0 mph 18.4 mph N/A   Overcast
7:35 AM 28.2 °F 17.7 °F 22.1 °F 78% 29.84 in 10.0 mi West 12.7 mph 21.9 mph N/A   Overcast
7:55 AM 27.3 °F 16.6 °F 21.2 °F 78% 29.84 in 10.0 mi West 12.7 mph 21.9 mph N/A   Overcast
8:15 AM 27.0 °F 16.1 °F 21.2 °F 79% 29.84 in 10.0 mi West 12.7 mph 18.4 mph N/A   Overcast
8:35 AM 27.5 °F 16.8 °F 22.6 °F 82% 29.85 in 10.0 mi West 12.7 mph 16.1 mph N/A   Overcast
8:55 AM 27.7 °F 18.8 °F 23.5 °F 84% 29.85 in 10.0 mi West 9.2 mph - N/A   Overcast
9:15 AM 28.4 °F 18.0 °F 24.3 °F 84% 29.85 in 10.0 mi West 12.7 mph 19.6 mph N/A   Overcast
9:35 AM 28.4 °F 18.5 °F 23.9 °F 83% 29.84 in 10.0 mi West 11.5 mph 21.9 mph N/A   Overcast
9:55 AM 28.2 °F 16.8 °F 23.7 °F 83% 29.85 in 10.0 mi West 15.0 mph 21.9 mph N/A   Overcast
10:15 AM 28.4 °F 18.0 °F 23.9 °F 83% 29.86 in 10.0 mi West 12.7 mph 19.6 mph N/A   Overcast
10:35 AM 28.4 °F 18.5 °F 23.9 °F 83% 29.88 in 10.0 mi West 11.5 mph 19.6 mph N/A   Overcast
10:55 AM 28.9 °F 18.2 °F 23.5 °F 80% 29.87 in 10.0 mi West 13.8 mph 19.6 mph N/A   Overcast
11:15 AM 28.4 °F 17.5 °F 22.8 °F 80% 29.88 in 10.0 mi WNW 13.8 mph 21.9 mph N/A Snow Light Snow
11:35 AM 28.2 °F 18.3 °F 22.3 °F 78% 29.88 in 10.0 mi WNW 11.5 mph 26.5 mph N/A   Overcast
11:55 AM 28.2 °F 17.7 °F 21.9 °F 77% 29.88 in 10.0 mi NW 12.7 mph 18.4 mph N/A   Overcast
12:15 PM 27.3 °F 17.1 °F 21.6 °F 79% 29.88 in 7.0 mi WNW 11.5 mph 19.6 mph N/A Snow Light Snow
12:35 PM 27.3 °F 17.1 °F 21.2 °F 78% 29.89 in 10.0 mi WNW 11.5 mph 16.1 mph N/A   Overcast
12:55 PM 27.0 °F 16.7 °F 21.6 °F 80% 29.88 in 4.0 mi West 11.5 mph 17.3 mph N/A Snow Light Snow
1:16 PM 26.4 °F 15.0 °F 21.6 °F 82% 29.88 in 3.0 mi WNW 13.8 mph 20.7 mph N/A Snow Light Snow
1:35 PM 26.4 °F 15.0 °F 18.7 °F 73% 29.87 in 7.0 mi WNW 13.8 mph 21.9 mph N/A   Overcast
1:55 PM 26.1 °F 15.6 °F 15.4 °F 64% 29.88 in 5.0 mi NW 11.5 mph 26.5 mph N/A   Haze
2:15 PM 25.7 °F 13.1 °F 16.7 °F 69% 29.88 in 10.0 mi WNW 16.1 mph 24.2 mph N/A   Overcast
2:35 PM 25.5 °F 14.9 °F 17.6 °F 72% 29.89 in 10.0 mi WNW 11.5 mph 24.2 mph N/A   Overcast
2:55 PM 24.6 °F 13.2 °F 15.8 °F 69% 29.90 in 10.0 mi WNW 12.7 mph 23.0 mph N/A Snow Light Snow
3:15 PM 24.4 °F 13.5 °F 15.6 °F 69% 29.90 in 10.0 mi WNW 11.5 mph 19.6 mph N/A   Overcast
3:35 PM 23.9 °F 11.2 °F 15.3 °F 70% 29.91 in 10.0 mi NW 15.0 mph 21.9 mph N/A   Overcast
3:55 PM 23.0 °F 10.1 °F 16.3 °F 76% 29.93 in 10.0 mi WNW 15.0 mph 25.3 mph N/A   Overcast
4:15 PM 22.1 °F 8.9 °F 13.8 °F 70% 29.94 in 10.0 mi NW 15.0 mph 24.2 mph N/A   Overcast
4:35 PM 21.2 °F 7.8 °F 12.2 °F 68% 29.95 in 10.0 mi WNW 15.0 mph 26.5 mph N/A   Overcast
4:55 PM 20.8 °F 6.4 °F 11.8 °F 68% 29.96 in 10.0 mi NW 17.3 mph 27.6 mph N/A   Overcast
5:15 PM 20.7 °F 6.6 °F 12.4 °F 70% 29.96 in 10.0 mi NW 16.1 mph 25.3 mph N/A   Overcast
5:35 PM 20.7 °F 6.6 °F 12.4 °F 70% 29.97 in 10.0 mi WNW 16.1 mph 25.3 mph N/A   Overcast
5:55 PM 20.7 °F 8.2 °F 13.1 °F 73% 29.98 in 10.0 mi NW 12.7 mph 24.2 mph N/A   Overcast
6:15 PM 20.7 °F 5.7 °F 12.9 °F 72% 29.99 in 10.0 mi WNW 18.4 mph 26.5 mph N/A   Overcast
6:36 PM 20.1 °F 6.9 °F 12.2 °F 71% 30.00 in 10.0 mi WNW 13.8 mph 26.5 mph N/A   Overcast
6:55 PM 20.1 °F 8.8 °F 12.0 °F 71% 29.99 in 10.0 mi NW 10.4 mph 24.2 mph N/A   Overcast
6:59 PM 20.1 °F 6.9 °F 12.0 °F 71% 30.00 in 10.0 mi WNW 13.8 mph 24.2 mph N/A   Overcast
7:35 PM 19.9 °F 6.2 °F 13.3 °F 75% 30.01 in 10.0 mi NW 15.0 mph 24.2 mph N/A   Overcast
7:55 PM 19.9 °F 9.3 °F 12.7 °F 74% 30.02 in 10.0 mi WNW 9.2 mph 21.9 mph N/A   Overcast
8:15 PM 19.8 °F 6.5 °F 13.6 °F 77% 30.02 in 10.0 mi WNW 13.8 mph 19.6 mph N/A   Overcast
8:35 PM 19.6 °F 6.2 °F 13.8 °F 78% 30.02 in 10.0 mi NW 13.8 mph 23.0 mph N/A   Overcast
8:55 PM 19.4 °F 8.6 °F 13.3 °F 77% 30.02 in 10.0 mi NW 9.2 mph - N/A   Overcast
9:15 PM 19.4 °F 8.6 °F 13.8 °F 79% 30.03 in 10.0 mi WNW 9.2 mph 19.6 mph N/A   Overcast
9:35 PM 19.4 °F 6.0 °F 13.6 °F 78% 30.03 in 10.0 mi WNW 13.8 mph 18.4 mph N/A   Overcast
10:15 PM 19.4 °F 7.2 °F 12.6 °F 75% 30.03 in 10.0 mi NW 11.5 mph 18.4 mph N/A   Mostly Cloudy
10:35 PM 19.4 °F 7.9 °F 12.7 °F 75% 30.03 in 10.0 mi NW 10.4 mph 19.6 mph N/A   Overcast
10:55 PM 19.4 °F 7.9 °F 12.2 °F 74% 30.03 in 10.0 mi NW 10.4 mph 19.6 mph N/A   Overcast
11:16 PM 19.8 °F 7.7 °F 12.9 °F 75% 30.04 in 10.0 mi NW 11.5 mph 17.3 mph N/A   Overcast
11:35 PM 19.4 °F 9.5 °F 12.4 °F 74% 30.04 in 10.0 mi NNW 8.1 mph - N/A   Overcast
11:55 PM 19.8 °F 5.4 °F 12.7 °F 74% 30.04 in 10.0 mi NW 16.1 mph 20.7 mph N/A   Overcast